NGN4820 EDDG-LGRP

Flight info

Callsign NGN4820
Flight time N/A
Altitude 35000
Route DOMEG1E DOMEG Z841 GMH Q603 TESGA DCT ESATI DCT DETEV DCT DINKU DCT BESNI DCT LATLO DCT OBEDI DCT CEPRA DCT PODET DCT IRDIV DCT REMSO/N0433F370 DCT MEDUX UM867 KOGAT DCT ERANA UL737 TSL UN130 MES UN139 LURUS UL995 CODIC CODIC2D
Aircraft A320/M-SDE3FGHIJ1LORVWXY/SB1

Departure

Time 2026-04-27 10:34
Airport Münster Osnabrück Airport (EDDG)

Arrival

Time N/A
Airport Rhodes International Airport "Diagoras" (LGRP)
Time Latitude Longitude Altitude Speed Heading
2026-04-27 09:02 52.13160 7.69302 168 ft 0 kts 196°
2026-04-27 10:27 52.13159 7.69302 167 ft 0 kts 200°
2026-04-27 10:28 52.13159 7.69295 167 ft 0 kts 242°
2026-04-27 10:28 52.13161 7.69290 167 ft 0 kts 285°
2026-04-27 10:28 52.13168 7.69281 167 ft 3 kts 317°
2026-04-27 10:28 52.13197 7.69272 167 ft 6 kts
2026-04-27 10:29 52.13241 7.69317 167 ft 9 kts 20°
2026-04-27 10:29 52.13313 7.69288 167 ft 13 kts 341°
2026-04-27 10:29 52.13406 7.69236 167 ft 13 kts 341°
2026-04-27 10:29 52.13428 7.69138 167 ft 12 kts 251°
2026-04-27 10:30 52.13397 7.68992 167 ft 15 kts 251°
2026-04-27 10:30 52.13358 7.68807 167 ft 19 kts 251°
2026-04-27 10:30 52.13312 7.68585 167 ft 22 kts 251°
2026-04-27 10:30 52.13260 7.68342 167 ft 23 kts 251°
2026-04-27 10:31 52.13208 7.68099 167 ft 21 kts 251°
2026-04-27 10:31 52.13163 7.67886 167 ft 18 kts 251°
2026-04-27 10:31 52.13122 7.67695 167 ft 18 kts 250°
2026-04-27 10:31 52.13081 7.67507 167 ft 18 kts 251°
2026-04-27 10:32 52.13039 7.67309 167 ft 15 kts 251°
2026-04-27 10:32 52.13026 7.67175 167 ft 12 kts 279°
2026-04-27 10:32 52.13073 7.67069 167 ft 9 kts 328°
2026-04-27 10:32 52.13136 7.67036 167 ft 9 kts 352°
2026-04-27 10:33 52.13164 7.67047 166 ft 3 kts 41°
2026-04-27 10:33 52.13169 7.67075 166 ft 0 kts 72°
2026-04-27 10:33 52.13209 7.67270 165 ft 50 kts 71°
2026-04-27 10:34 52.13394 7.68140 168 ft 109 kts 71°
2026-04-27 10:34 52.13697 7.69562 175 ft 154 kts 71°
2026-04-27 10:34 52.14049 7.71239 645 ft 154 kts 69°
2026-04-27 10:34 52.14394 7.72888 1243 ft 154 kts 71°
2026-04-27 10:35 52.14752 7.74585 1632 ft 167 kts 71°
2026-04-27 10:35 52.15152 7.76463 1895 ft 184 kts 71°
2026-04-27 10:35 52.15590 7.78522 2171 ft 202 kts 71°
2026-04-27 10:35 52.15827 7.80785 2632 ft 210 kts 99°
2026-04-27 10:36 52.15130 7.82872 3064 ft 221 kts 141°
2026-04-27 10:36 52.13727 7.84151 3395 ft 242 kts 159°
2026-04-27 10:36 52.12073 7.85065 3896 ft 258 kts 164°
2026-04-27 10:36 52.10315 7.85756 4670 ft 263 kts 175°
2026-04-27 10:37 52.08494 7.85358 5358 ft 270 kts 202°
2026-04-27 10:37 52.06805 7.84001 6141 ft 273 kts 208°
2026-04-27 10:37 52.05087 7.82661 6922 ft 277 kts 206°
2026-04-27 10:37 52.03310 7.81384 7661 ft 280 kts 204°
2026-04-27 10:38 52.01508 7.80130 8399 ft 284 kts 204°
2026-04-27 10:38 51.99682 7.78865 9152 ft 286 kts 204°
2026-04-27 10:38 51.97840 7.77587 9906 ft 289 kts 204°
2026-04-27 10:38 51.95984 7.76293 10552 ft 295 kts 205°
2026-04-27 10:39 51.94024 7.74919 10717 ft 318 kts 205°
2026-04-27 10:39 51.91928 7.73443 10991 ft 334 kts 205°
2026-04-27 10:39 51.89780 7.71931 11567 ft 339 kts 205°
2026-04-27 10:39 51.87633 7.70418 12182 ft 342 kts 205°
2026-04-27 10:40 51.85434 7.68866 12806 ft 346 kts 205°
2026-04-27 10:40 51.83217 7.67305 13454 ft 350 kts 205°
2026-04-27 10:40 51.80978 7.65737 14122 ft 352 kts 205°
2026-04-27 10:40 51.78727 7.64156 14696 ft 354 kts 206°
2026-04-27 10:41 51.76463 7.62568 15280 ft 356 kts 206°
2026-04-27 10:41 51.74154 7.61035 15848 ft 361 kts 200°
2026-04-27 10:41 51.71686 7.60179 16400 ft 367 kts 188°
2026-04-27 10:41 51.69112 7.60226 16946 ft 374 kts 175°
2026-04-27 10:42 51.66570 7.61212 17479 ft 380 kts 163°
2026-04-27 10:42 51.64063 7.62658 18011 ft 384 kts 163°
2026-04-27 10:42 51.61545 7.64106 18551 ft 387 kts 163°
2026-04-27 10:42 51.58997 7.65558 19033 ft 390 kts 163°
2026-04-27 10:43 51.56428 7.67012 19516 ft 393 kts 163°
2026-04-27 10:43 51.53825 7.68481 19980 ft 397 kts 163°
2026-04-27 10:43 51.51212 7.69954 20455 ft 400 kts 164°
2026-04-27 10:43 51.48573 7.71441 20970 ft 403 kts 163°
2026-04-27 10:44 51.45923 7.72937 21470 ft 406 kts 163°
2026-04-27 10:44 51.43246 7.74458 21953 ft 409 kts 164°
2026-04-27 10:44 51.40560 7.75986 22421 ft 412 kts 164°
2026-04-27 10:44 51.37877 7.77508 22869 ft 415 kts 164°
2026-04-27 10:45 51.35150 7.79051 23320 ft 418 kts 164°
2026-04-27 10:45 51.32396 7.80606 23754 ft 421 kts 164°
2026-04-27 10:45 51.29625 7.82166 24114 ft 424 kts 164°
2026-04-27 10:45 51.26724 7.83795 24498 ft 426 kts 164°
2026-04-27 10:46 51.24031 7.85302 24851 ft 429 kts 164°
2026-04-27 10:46 51.21207 7.86881 25222 ft 431 kts 164°
2026-04-27 10:46 51.18370 7.88501 25582 ft 434 kts 161°
2026-04-27 10:46 51.15646 7.90647 25924 ft 441 kts 152°
2026-04-27 10:47 51.13054 7.93283 26264 ft 443 kts 150°
2026-04-27 10:47 51.10449 7.95951 26598 ft 446 kts 150°
2026-04-27 10:47 51.07836 7.98617 26912 ft 448 kts 150°
2026-04-27 10:47 51.05199 8.01298 27205 ft 450 kts 150°
2026-04-27 10:48 51.02560 8.03973 27521 ft 452 kts 150°
2026-04-27 10:48 50.99931 8.06630 27838 ft 454 kts 150°
2026-04-27 10:48 50.97230 8.09354 28164 ft 456 kts 150°
2026-04-27 10:48 50.94581 8.12025 28477 ft 458 kts 150°
2026-04-27 10:49 50.91882 8.14741 28789 ft 460 kts 150°
2026-04-27 10:49 50.89177 8.17457 29106 ft 461 kts 150°
2026-04-27 10:49 50.86454 8.20190 29419 ft 463 kts 150°
2026-04-27 10:49 50.83737 8.22920 29847 ft 462 kts 150°
2026-04-27 10:50 50.81023 8.25642 30254 ft 461 kts 151°
2026-04-27 10:50 50.78328 8.28335 30611 ft 460 kts 151°
2026-04-27 10:50 50.75608 8.31051 30977 ft 459 kts 151°
2026-04-27 10:50 50.72937 8.33720 31344 ft 459 kts 151°
2026-04-27 10:51 50.70244 8.36410 31721 ft 458 kts 151°
2026-04-27 10:51 50.67549 8.39099 32104 ft 457 kts 151°
2026-04-27 10:51 50.64858 8.41774 32496 ft 456 kts 151°
2026-04-27 10:51 50.62176 8.44433 32828 ft 457 kts 151°
2026-04-27 10:52 50.59448 8.47138 33167 ft 457 kts 151°
2026-04-27 10:52 50.56797 8.49766 33524 ft 456 kts 152°
2026-04-27 10:52 50.54102 8.52430 33856 ft 456 kts 152°
2026-04-27 10:52 50.51421 8.55074 34200 ft 456 kts 152°
2026-04-27 10:53 50.48730 8.57724 34497 ft 456 kts 152°
2026-04-27 10:53 50.43513 8.63398 35044 ft 459 kts 140°
2026-04-27 10:53 50.41975 8.65688 35186 ft 460 kts 139°
2026-04-27 10:54 50.39672 8.69180 35250 ft 464 kts 139°
2026-04-27 10:54 50.34958 8.76287 35250 ft 469 kts 139°
2026-04-27 10:55 50.30272 8.83322 35235 ft 469 kts 139°
2026-04-27 10:55 50.25557 8.90385 35245 ft 469 kts 139°
2026-04-27 10:56 50.20838 8.97432 35245 ft 469 kts 139°
2026-04-27 10:56 50.16105 9.04465 35248 ft 469 kts 139°
2026-04-27 10:57 50.11384 9.11487 35255 ft 469 kts 139°
2026-04-27 10:57 50.06678 9.18457 35260 ft 470 kts 139°
2026-04-27 10:58 50.01936 9.25468 35238 ft 470 kts 138°
2026-04-27 10:58 49.97185 9.32476 35239 ft 470 kts 139°
2026-04-27 10:59 49.92422 9.39463 35245 ft 470 kts 139°
2026-04-27 10:59 49.87662 9.46442 35248 ft 471 kts 139°
2026-04-27 11:00 49.80519 9.56884 35251 ft 471 kts 138°
2026-04-27 11:00 49.75735 9.63821 35242 ft 471 kts 138°
2026-04-27 11:01 49.70949 9.70755 35247 ft 471 kts 138°
2026-04-27 11:01 49.66195 9.77629 35254 ft 471 kts 139°
2026-04-27 11:02 49.61398 9.84548 35259 ft 471 kts 139°
2026-04-27 11:02 49.56571 9.91479 35271 ft 471 kts 139°
2026-04-27 11:03 49.51789 9.98317 35252 ft 472 kts 138°
2026-04-27 11:03 49.46979 10.05183 35261 ft 471 kts 138°
2026-04-27 11:04 49.42176 10.12041 35263 ft 471 kts 138°
2026-04-27 11:04 49.37363 10.18884 35262 ft 471 kts 138°
2026-04-27 11:05 49.32549 10.25706 35267 ft 471 kts 139°
2026-04-27 11:05 49.27724 10.32520 35263 ft 471 kts 138°
2026-04-27 11:06 49.22901 10.39319 35277 ft 470 kts 138°
2026-04-27 11:06 49.18175 10.46233 35289 ft 470 kts 136°
2026-04-27 11:07 49.13527 10.53254 35302 ft 470 kts 136°
2026-04-27 11:07 49.08866 10.60246 35299 ft 469 kts 136°
2026-04-27 11:08 49.04200 10.67130 35303 ft 469 kts 136°
2026-04-27 11:08 48.99495 10.74035 35289 ft 469 kts 136°
2026-04-27 11:09 48.94793 10.80942 35279 ft 469 kts 136°
2026-04-27 11:09 48.90092 10.87825 35275 ft 469 kts 136°
2026-04-27 11:10 48.85391 10.94681 35263 ft 468 kts 137°
2026-04-27 11:10 48.80682 11.01536 35270 ft 468 kts 136°
2026-04-27 11:11 48.76004 11.08338 35249 ft 469 kts 136°
2026-04-27 11:11 48.71290 11.15173 35255 ft 469 kts 136°
2026-04-27 11:12 48.66558 11.22006 35258 ft 469 kts 136°
2026-04-27 11:12 48.61904 11.28916 35251 ft 469 kts 133°
2026-04-27 11:13 48.57537 11.36225 35262 ft 469 kts 131°
2026-04-27 11:13 48.53243 11.43637 35255 ft 469 kts 131°
2026-04-27 11:14 48.48879 11.50961 35222 ft 469 kts 132°
2026-04-27 11:14 48.44468 11.58212 35227 ft 469 kts 132°
2026-04-27 11:15 48.40082 11.65392 35229 ft 469 kts 132°
2026-04-27 11:15 48.35675 11.72617 35241 ft 469 kts 132°
2026-04-27 11:16 48.31264 11.79845 35238 ft 469 kts 132°
2026-04-27 11:16 48.26850 11.87051 35236 ft 469 kts 132°
2026-04-27 11:17 48.22428 11.94251 35235 ft 469 kts 132°
2026-04-27 11:17 48.18005 12.01441 35232 ft 469 kts 132°
2026-04-27 11:18 48.13576 12.08613 35241 ft 469 kts 133°
2026-04-27 11:18 48.09138 12.15774 35234 ft 469 kts 133°
2026-04-27 11:19 48.04698 12.22908 35228 ft 469 kts 133°
2026-04-27 11:19 48.00258 12.30047 35226 ft 469 kts 133°
2026-04-27 11:20 47.95814 12.37171 35215 ft 468 kts 133°
2026-04-27 11:20 47.91370 12.44276 35221 ft 468 kts 133°
2026-04-27 11:21 47.86926 12.51353 35221 ft 468 kts 133°
2026-04-27 11:21 47.82470 12.58426 35222 ft 468 kts 133°
2026-04-27 11:22 47.78018 12.65486 35228 ft 468 kts 133°
2026-04-27 11:22 47.73562 12.72525 35238 ft 468 kts 133°
2026-04-27 11:23 47.69102 12.79554 35224 ft 467 kts 133°
2026-04-27 11:23 47.64606 12.86447 35225 ft 468 kts 135°
2026-04-27 11:24 47.59971 12.93228 35222 ft 468 kts 135°
2026-04-27 11:24 47.55332 12.99977 35213 ft 468 kts 135°
2026-04-27 11:25 47.50709 13.06756 35214 ft 467 kts 135°
2026-04-27 11:25 47.46090 13.13545 35185 ft 468 kts 135°
2026-04-27 11:26 47.41470 13.20321 35188 ft 468 kts 135°
2026-04-27 11:26 47.36846 13.27068 35190 ft 467 kts 135°
2026-04-27 11:27 47.32334 13.33958 35187 ft 466 kts 127°
2026-04-27 11:27 47.28523 13.41684 35186 ft 466 kts 125°
2026-04-27 11:28 47.24710 13.49412 35179 ft 467 kts 125°
2026-04-27 11:28 47.20891 13.57132 35174 ft 467 kts 125°
2026-04-27 11:29 47.17069 13.64844 35166 ft 466 kts 125°
2026-04-27 11:29 47.13244 13.72538 35184 ft 466 kts 125°
2026-04-27 11:30 47.09422 13.80228 35177 ft 466 kts 125°
2026-04-27 11:30 47.05618 13.87850 35176 ft 466 kts 125°
2026-04-27 11:31 47.01766 13.95516 35175 ft 466 kts 125°
2026-04-27 11:31 46.97926 14.03157 35171 ft 465 kts 125°
2026-04-27 11:32 46.94086 14.10790 35176 ft 466 kts 125°
2026-04-27 11:32 46.90241 14.18410 35166 ft 465 kts 125°
2026-04-27 11:33 46.86387 14.26006 35176 ft 465 kts 125°
2026-04-27 11:33 46.82533 14.33585 35179 ft 464 kts 126°
2026-04-27 11:34 46.78679 14.41155 35191 ft 464 kts 125°
2026-04-27 11:34 46.74825 14.48716 35184 ft 465 kts 125°
2026-04-27 11:35 46.70956 14.56275 35179 ft 465 kts 125°
2026-04-27 11:35 46.67109 14.63773 35179 ft 465 kts 126°
2026-04-27 11:36 46.63229 14.71308 35175 ft 465 kts 126°
2026-04-27 11:36 46.59348 14.78819 35192 ft 465 kts 125°
2026-04-27 11:37 46.56115 14.85063 35199 ft 464 kts 125°
2026-04-27 11:37 46.52236 14.92546 35198 ft 464 kts 125°